DELTA 1 DEB, 7017

Orbit data source: Space-Track

DELTA 1 DEB, 7017 is space debris in SSO originally from a launch on Tue, 06 Nov 1973 UTC launched from the Air Force Western Test Range (AFWTR). Debris objects in space refer to the collection of defunct objects orbiting the Earth. Examples of debris include non-operational satellites, rocket bodies, and fragments generated from explosions, collisions, or faulty payload assembly.

Loading next visibility...
Identifier
7017, 1973-086H
Orbit
SSO
Country
Flag of USUS
Related business
Manufacturer
Unknown
Mission
Spacecraft
Bus & Motor
Unknown
Mass
Unknown
Launch date (UTC)
1973-11-06 (52 years ago)
Launch vehicle
Unknown
Launch site
Air Force Western Test Range (AFWTR)
Object type
Payload
Rocket body
Debris
Shape & HBR
Unknown shape, 0.3 m
Radar Cross Section
Small (<0.1 m²)

Expand to show TLE details & history
Last TLE update: 3 hours ago

TLE from 3 hours ago
0 DELTA 1 DEB
1  7017U 73086H   25300.54993462  .00000033  00000-0  48721-3 0  9992
2  7017 102.0234 210.4867 0149424 141.0412  39.3563 12.51836312358191
Epoch: 2025-10-27T13:11Z
TLE epoch observation values (Epoch: 2025-10-27T13:11:54.351Z)
Latitude
-1.58061°
Longitude
156.02501°
Altitude
1,369.786 km
Speed
7.215 km/s
True Right ascension
02h 00m 36s
True Declination
-1° 34' 19"
Sunlit
Object was in full shadow at epoch
Visualization orbit readout
Latitude
Unknown
Longitude
Unknown
Altitude
Unknown
Speed
Unknown
Apparent Right ascension
Unknown
Apparent Declination
Unknown
Sunlit
N/A
Visualization observer readout
Local Sidereal Time
12:01:39
Azimuth
Unknown
Elevation
Unknown
Doppler factor
Unknown
Orbital elements
Apogee altitude
1,571.42 km
Perigee altitude
1,337.347 km
Semi-major axis
7,832.52 km
Eccentricity
0.01494
Inclination
102.0234°
RAAN
210.4867°
Arg. of periapsis
141.0412°
True anomaly
40.45796°
Mean anomaly
39.3563°
Eccentric anomaly
39.90553°
Mean motion
3.13106 °/min
Orbital period
114.98 mins
BSTAR
0.00048721
Loading maneuver chart data...
Computing Atmospheric mass density...
Loading historical data...
Loading historical data...
Loading historical data...
Loading historical data...
Loading historical data...
Loading historical data...
Loading historical data...

Documentation

Showing up to 5 results
|